DECAYED

STARLINK-1732, 46584 (Decayed)

Orbit data source: Space-Track

STARLINK-1732, 46584 was a payload satellite owned by SpaceX/Seattle (US) in LEO that was launched on Tue, 06 Oct 2020 UTC via an FALCON 9 launch vehicle from the Air Force Eastern Test Range (AFETR). Payload-class satellites include a variety of spacecraft equipped with specific instruments for various scientific and technological missions. These include communications satellites like Starlink; space stations such as the ISS; scientific satellites like the Hubble; Earth observation satellites from companies like Planet Labs, Umbra, and HawkEye 360; GPS; miniature CubeSats for education and research; and military/defense satellites.

Not visible in the next 10 days
Identifier
46584, 2020-070BE
Orbit
Decayed
Country
Flag of USUS
Related business
Manufacturer
SpaceX/Seattle
Mission
Decayed Commercial Communications
Bus & Motor
STARLINK, Unknown motor
Mass
260 kg wet, ~248 kg dry
Launch date (UTC)
2020-10-06 (5 years ago)
Launch vehicle
FALCON 9
Launch site
Air Force Eastern Test Range (AFETR)
Object type
Payload
Rocket body
Debris
Shape & HBR
Box + 1 Pan, 10.1 m
Radar Cross Section
13.562 m², Large (>1 m²)

Expand to show TLE details & history
Last TLE update: 10 months ago

TLE from 10 months ago
0 STARLINK-1732
1 46584U 20070BE  25057.34190019  .15689665  12485-4  60477-3 0  9999
2 46584  53.0161 356.9940 0000359  79.4488  12.7939 16.44361266243434
Epoch: 2025-02-26T08:12Z
TLE epoch observation values (Epoch: 2025-02-26T08:12:20.176Z)
Latitude
53.11674°
Longitude
171.20754°
Altitude
160.455 km
Speed
7.817 km/s
True Right ascension
06h 02m 53s
True Declination
52° 56' 11"
Sunlit
Object was in full shadow at epoch
Visualization orbit readout
Latitude
Unknown
Longitude
Unknown
Altitude
Unknown
Speed
Unknown
Apparent Right ascension
Unknown
Apparent Declination
Unknown
Sunlit
N/A
Visualization observer readout
Local Sidereal Time
12:09:23
Azimuth
Unknown
Elevation
Unknown
Doppler factor
Unknown
Orbital elements
Apogee altitude
154.754 km
Perigee altitude
154.285 km
Semi-major axis
6,532.657 km
Eccentricity
0.00004
Inclination
53.0161°
RAAN
356.994°
Arg. of periapsis
79.4488°
True anomaly
12.79481°
Mean anomaly
12.7939°
Eccentric anomaly
12.79436°
Mean motion
4.11063 °/min
Orbital period
87.58 mins
BSTAR
0.00060477
Loading maneuver chart data...
Computing Atmospheric mass density...
Loading historical data...
Loading historical data...
Loading historical data...
Loading historical data...
Loading historical data...
Loading historical data...
Loading historical data...

Documentation

Showing up to 5 results
|